Weather History for Savanna, IL

Change the Weather History Date:

Thursday, May 8, 2014

  Actual Average (KCWI) Record (KCWI)
Temperature  
Mean Temperature 74 °F -  
Max Temperature 84 °F 71 °F 91 °F (1979)
Min Temperature 65 °F 48 °F 35 °F (1954)
Cooling Degree Days 10    
Growing Degree Days 24 (Base 50)    
Moisture  
Dew Point 60 °F    
Average Humidity 63    
Maximum Humidity 83    
Minimum Humidity 43    
Precipitation  
Precipitation 0.00 in - - ()
Sea Level Pressure  
Sea Level Pressure 29.76 in    
Wind  
Wind Speed 10 mph (South)    
Max Wind Speed 17 mph    
Max Gust Speed 23 mph    
Visibility 10 miles    
Events Rain    
Averages and records for this station are not official NWS values.
T = Trace of Precipitation, MM = Missing Value Source: NWS Daily Summary

Daily Weather History Graph

Daily Weather History Graph

Search for Another Location

Airport:

Trip Planner

Search our weather history database for the weather conditions in past years. The results will help you decide how hot, cold, wet, or windy it might be!

Date:

Astronomy

May. 08, 2014 Rise Set
Actual Time 5:47 AM CDT 8:07 PM CDT
Civil Twilight 5:16 AM CDT 8:38 PM CDT
Nautical Twilight 4:37 AM CDT 9:17 PM CDT
Astronomical Twilight 3:55 AM CDT 10:00 PM CDT
Moon 2:01 PM CDT (5/8) 2:25 AM CDT (5/8)
Length of Visible Light 15h 22m
Length of Day
14h 19m
Waxing Gibbous, 65% of the Moon is Illuminated
May 8
Waxing Gibbous
May 14
Full
May 21
Last Quarter
May 28
New
Jun 5
First Quarter

Hourly Weather History & Observations

Time (CDT) Temp. Heat Index Dew Point Humidity Pressure Visibility Wind Dir Wind Speed Gust Speed Precip Events Conditions
12:15 AM 71.6 °F - 59.0 °F 64% 29.74 in 10.0 mi SE 11.5 mph - N/A   Clear
12:35 AM 71.6 °F - 58.8 °F 64% 29.74 in 10.0 mi SSE 10.4 mph - N/A   Clear
12:55 AM 70.7 °F - 59.0 °F 66% 29.74 in 10.0 mi SSE 9.2 mph - N/A   Clear
1:15 AM 70.3 °F - 59.0 °F 67% 29.74 in 10.0 mi SE 11.5 mph - N/A   Clear
1:35 AM 70.7 °F - 59.0 °F 66% 29.74 in 10.0 mi SSE 10.4 mph - N/A   Clear
1:55 AM 70.0 °F - 59.0 °F 68% 29.74 in 10.0 mi SSE 9.2 mph - N/A   Clear
2:15 AM 68.7 °F - 59.0 °F 71% 29.73 in 10.0 mi SSE 5.8 mph - N/A   Clear
2:55 AM 65.8 °F - 58.5 °F 77% 29.74 in 10.0 mi SE 8.1 mph - N/A   Clear
3:15 AM 65.7 °F - 58.5 °F 78% 29.75 in 10.0 mi South 4.6 mph - N/A   Clear
3:35 AM 65.7 °F - 59.0 °F 79% 29.75 in 10.0 mi SSE 6.9 mph - N/A   Clear
3:55 AM 66.7 °F - 59.5 °F 78% 29.76 in 10.0 mi SSE 6.9 mph - N/A   Clear
4:15 AM 66.6 °F - 59.9 °F 79% 29.76 in 10.0 mi SSE 8.1 mph - N/A   Clear
4:35 AM 66.7 °F - 59.9 °F 79% 29.77 in 10.0 mi South 9.2 mph - N/A   Clear
4:55 AM 66.6 °F - 60.1 °F 80% 29.76 in 10.0 mi SSE 6.9 mph - N/A   Clear
5:15 AM 65.7 °F - 59.9 °F 82% 29.76 in 10.0 mi SSE 8.1 mph - N/A   Clear
5:35 AM 66.4 °F - 60.4 °F 81% 29.77 in 10.0 mi SSE 8.1 mph - N/A   Clear
5:55 AM 65.7 °F - 60.3 °F 83% 29.78 in 10.0 mi SSE 6.9 mph - N/A   Clear
6:15 AM 66.6 °F - 61.0 °F 82% 29.78 in 10.0 mi SSE 8.1 mph - N/A   Clear
6:35 AM 67.6 °F - 61.3 °F 80% 29.78 in 10.0 mi SSE 8.1 mph - N/A   Clear
6:55 AM 68.5 °F - 61.7 °F 79% 29.78 in 10.0 mi SSE 8.1 mph - N/A   Clear
7:15 AM 69.8 °F - 62.1 °F 76% 29.78 in 10.0 mi SSE 9.2 mph - N/A   Clear
7:35 AM 70.2 °F - 61.9 °F 75% 29.79 in 10.0 mi South 9.2 mph - N/A   Clear
7:55 AM 70.9 °F - 62.1 °F 74% 29.81 in 10.0 mi South 10.4 mph - N/A   Clear
8:15 AM 71.6 °F - 61.9 °F 71% 29.79 in 10.0 mi South 10.4 mph - N/A   Clear
8:35 AM 72.5 °F - 62.2 °F 70% 29.80 in 10.0 mi South 10.4 mph - N/A   Clear
8:55 AM 73.9 °F - 62.1 °F 66% 29.80 in 10.0 mi South 13.8 mph 17.3 mph N/A   Clear
9:15 AM 74.7 °F - 62.4 °F 66% 29.79 in 10.0 mi South 12.7 mph - N/A   Clear
9:35 AM 75.6 °F - 61.9 °F 62% 29.79 in 10.0 mi South 15.0 mph - N/A   Clear
9:55 AM 76.1 °F - 61.7 °F 61% 29.79 in 10.0 mi South 17.3 mph 21.9 mph N/A   Clear
10:15 AM 75.6 °F - 61.7 °F 62% 29.79 in 10.0 mi SSW 13.8 mph - N/A   Clear
10:35 AM 76.3 °F - 61.7 °F 60% 29.79 in 10.0 mi South 11.5 mph - N/A   Clear
10:55 AM 77.2 °F - 61.9 °F 59% 29.81 in 10.0 mi South 12.7 mph - N/A   Clear
11:15 AM 77.7 °F - 62.1 °F 58% 29.81 in 10.0 mi SSW 11.5 mph - N/A   Clear
11:35 AM 77.9 °F - 61.7 °F 57% 29.81 in 10.0 mi South 12.7 mph - N/A   Clear
11:55 AM 77.9 °F - 61.2 °F 56% 29.81 in 10.0 mi SSW 9.2 mph - N/A   Clear
12:15 PM 78.6 °F - 61.3 °F 55% 29.80 in 10.0 mi South 10.4 mph - N/A   Clear
12:35 PM 79.3 °F - 61.3 °F 54% 29.79 in 10.0 mi South 10.4 mph - N/A   Clear
12:55 PM 77.7 °F - 60.8 °F 56% 29.76 in 10.0 mi SSW 3.5 mph - N/A   Scattered Clouds
1:15 PM 78.1 °F - 60.8 °F 55% 29.76 in 10.0 mi SE 11.5 mph - N/A   Scattered Clouds
1:35 PM 79.5 °F - 59.9 °F 51% 29.78 in 10.0 mi South 12.7 mph - N/A   Clear
1:55 PM 79.7 °F - 59.0 °F 49% 29.78 in 10.0 mi SSW 6.9 mph - N/A   Clear
2:15 PM 79.7 °F - 58.6 °F 48% 29.77 in 10.0 mi South 10.4 mph - N/A   Clear
2:35 PM 78.6 °F - 57.7 °F 49% 29.76 in 10.0 mi SSW 9.2 mph - N/A   Clear
2:55 PM 80.2 °F 80.7 °F 58.5 °F 47% 29.76 in 10.0 mi SW 8.1 mph - N/A   Clear
3:15 PM 81.5 °F 81.6 °F 58.5 °F 45% 29.74 in 10.0 mi SSW 9.2 mph - N/A   Clear
3:35 PM 82.6 °F 82.6 °F 59.2 °F 45% 29.74 in 10.0 mi SSW 9.2 mph - N/A   Clear
3:55 PM 84.2 °F 84.0 °F 59.2 °F 43% 29.73 in 10.0 mi SSW 9.2 mph - N/A   Clear
4:15 PM 84.2 °F 84.2 °F 59.9 °F 44% 29.72 in 10.0 mi SSW 8.1 mph - N/A   Scattered Clouds
4:35 PM 81.7 °F 82.0 °F 59.7 °F 47% 29.73 in 10.0 mi SSW 11.5 mph - N/A   Scattered Clouds
4:55 PM 80.6 °F 81.1 °F 59.0 °F 48% 29.73 in 10.0 mi SSW 11.5 mph - N/A   Scattered Clouds
5:15 PM 79.9 °F - 58.8 °F 48% 29.74 in 10.0 mi SSW 11.5 mph - N/A   Clear
5:35 PM 78.1 °F - 59.0 °F 52% 29.73 in 10.0 mi SSW 10.4 mph - N/A   Clear
5:55 PM 77.4 °F - 59.2 °F 53% 29.73 in 10.0 mi SSW 11.5 mph - N/A   Clear
6:15 PM 79.0 °F - 59.2 °F 51% 29.73 in 10.0 mi SE 16.1 mph 21.9 mph N/A   Clear
6:35 PM 76.1 °F - 56.7 °F 51% 29.73 in 10.0 mi SSE 9.2 mph - N/A   Clear
6:55 PM 75.7 °F - 56.8 °F 52% 29.73 in 10.0 mi South 6.9 mph - N/A   Mostly Cloudy
7:15 PM 74.1 °F - 57.9 °F 57% 29.74 in 10.0 mi SW 4.6 mph - N/A   Mostly Cloudy
7:35 PM 73.0 °F - 59.0 °F 61% 29.74 in 10.0 mi South 9.2 mph - N/A   Mostly Cloudy
7:55 PM 74.3 °F - 60.4 °F 62% 29.74 in 10.0 mi SSE 12.7 mph 19.6 mph N/A   Overcast
8:15 PM 73.8 °F - 58.3 °F 58% 29.74 in 10.0 mi South 11.5 mph - N/A Rain Rain
8:35 PM 73.4 °F - 58.1 °F 59% 29.73 in 10.0 mi SSE 11.5 mph - N/A   Mostly Cloudy
8:55 PM 72.7 °F - 59.0 °F 62% 29.74 in 10.0 mi South 12.7 mph - N/A   Scattered Clouds
9:15 PM 72.1 °F - 59.5 °F 64% 29.76 in 10.0 mi South 13.8 mph - N/A   Scattered Clouds
9:35 PM 71.8 °F - 59.9 °F 66% 29.76 in 10.0 mi South 17.3 mph 21.9 mph N/A   Mostly Cloudy
9:55 PM 71.1 °F - 60.1 °F 68% 29.76 in 10.0 mi South 15.0 mph - N/A   Mostly Cloudy
10:15 PM 71.2 °F - 60.1 °F 68% 29.76 in 10.0 mi South 16.1 mph 20.7 mph N/A   Overcast
10:35 PM 70.9 °F - 59.9 °F 68% 29.75 in 10.0 mi South 17.3 mph - N/A   Overcast
11:15 PM 71.1 °F - 59.4 °F 66% 29.73 in 10.0 mi South 15.0 mph - N/A   Mostly Cloudy
11:35 PM 70.7 °F - 58.6 °F 66% 29.73 in 10.0 mi SSE 16.1 mph 21.9 mph N/A   Mostly Cloudy
11:55 PM 70.2 °F - 59.2 °F 68% 29.73 in 10.0 mi South 13.8 mph 23.0 mph N/A   Scattered Clouds